Theta_e
342 340 341 341 340 340 339 339 338 338 337 337 337 337 336 337 338 339 340 339 339 339 339 339 340 340 340 339 338 337 339 338 335 334 335 337 338 338 337 337 338 338 339 339 340 339 338 337 337 338 339 339 338 338 336 334 333 332 330 328 328 326 324 324 326 325 319 314 312 311 310 310 309 309 309 309 309 308 307 306 305 305 304 304 303
343 342 341 340 341 340 339 339 338 338 338 337 338 337 337 337 338 339 340 340 340 339 339 340 340 341 340 339 338 338 340 338 336 335 336 337 338 338 337 337 338 338 339 340 340 339 337 337 337 338 339 338 337 336 334 333 332 331 329 326 324 325 323 320 321 320 315 310 309 309 309 309 309 308 309 309 309 309 308 307 306 305 304 304 303
345 344 342 340 340 340 338 338 338 338 338 338 338 337 337 337 338 339 340 340 340 340 340 340 340 341 341 339 337 339 340 338 337 337 338 338 338 337 337 337 337 338 339 340 340 338 337 337 336 338 339 337 336 334 333 332 331 330 329 327 323 321 319 318 318 318 315 311 310 312 312 311 310 308 308 308 308 308 308 307 306 305 304 304 303
345 345 344 341 341 339 338 338 338 338 338 338 338 338 337 337 338 339 340 340 340 340 340 340 341 341 341 339 338 339 340 339 339 339 339 338 338 338 337 337 337 338 339 340 340 338 337 336 337 338 338 336 335 334 333 331 331 329 328 328 325 320 316 316 317 317 317 315 313 314 311 310 313 311 307 308 307 307 307 308 306 304 304 304 302
345 345 344 343 341 340 339 338 338 338 338 338 338 338 338 337 337 338 339 340 340 340 340 340 340 340 340 339 339 339 339 340 339 339 339 338 338 337 337 337 338 339 339 340 339 338 337 336 336 337 337 336 334 333 333 332 331 330 328 328 327 324 318 316 317 317 317 319 317 315 311 313 318 312 307 307 307 307 306 307 307 305 304 304 302
344 344 344 344 342 340 339 339 338 338 338 338 338 338 338 338 337 338 339 339 340 340 340 340 340 340 340 339 338 338 338 338 339 338 338 338 337 337 337 338 338 339 340 340 339 338 337 336 336 336 335 335 334 333 333 332 331 330 329 328 327 327 324 318 317 317 317 317 317 315 313 317 318 310 306 308 306 306 306 306 307 305 304 304 303
343 344 343 344 343 341 340 339 338 338 338 339 338 338 338 338 337 337 339 339 339 339 340 340 340 340 339 339 338 337 337 337 338 338 338 338 337 337 338 338 339 340 340 339 338 338 338 336 336 335 335 334 333 333 332 332 331 329 329 329 327 327 326 322 319 318 316 315 315 314 314 318 316 307 307 310 308 307 305 305 306 305 304 304 304
343 344 343 344 343 342 341 339 339 339 339 339 338 338 338 338 338 337 338 339 339 339 339 339 340 339 339 338 338 338 338 337 338 338 337 338 338 338 338 339 339 339 340 339 338 338 338 337 335 335 334 334 333 332 332 332 331 330 328 328 328 326 326 325 322 320 318 316 314 314 317 319 317 309 305 307 311 311 308 306 305 304 305 305 305
343 343 343 343 343 341 341 340 340 339 339 339 338 339 339 338 338 337 338 339 339 338 339 339 339 339 338 338 338 338 338 338 338 337 337 338 338 339 339 339 339 339 339 338 338 338 337 337 335 334 334 333 333 332 332 332 331 330 329 328 327 326 326 325 324 322 321 319 316 315 317 318 316 311 305 304 309 312 311 309 306 305 305 305 304
343 342 343 343 341 341 342 341 340 339 339 339 339 339 338 338 338 337 338 338 338 339 339 339 338 338 338 338 338 337 337 337 337 337 337 338 338 339 339 338 339 338 338 337 337 337 336 336 335 334 334 333 333 333 332 331 331 330 329 328 327 326 325 324 324 324 322 321 319 316 317 317 314 311 307 306 307 309 310 309 306 306 306 304 303
342 342 343 342 341 341 341 341 340 340 339 339 339 338 338 338 337 337 338 338 338 339 338 338 338 338 338 338 337 337 337 337 337 337 337 337 337 338 338 338 338 338 338 337 336 336 335 335 334 334 334 333 333 332 331 331 331 330 328 327 326 326 326 325 323 323 322 321 320 318 318 318 317 315 312 310 308 308 311 309 305 305 305 304 303
342 342 343 343 342 342 341 341 340 339 339 339 338 338 338 337 337 337 337 338 338 338 338 338 338 338 338 338 337 337 337 337 336 336 336 336 337 337 337 337 337 337 337 336 335 335 334 334 333 333 334 333 333 332 331 331 330 329 327 325 324 324 325 325 323 323 322 321 321 320 319 320 320 320 319 316 312 310 312 309 304 305 306 304 303
341 343 343 343 343 343 341 340 340 339 338 338 338 338 338 337 337 337 337 337 338 338 338 338 337 338 338 337 337 337 337 337 337 336 336 336 336 337 337 337 337 336 336 335 334 334 334 333 333 333 334 334 333 332 330 330 328 327 326 325 323 322 323 323 323 324 323 322 322 321 320 320 320 320 319 318 315 311 310 307 304 306 306 303 301
340 343 343 343 343 343 341 340 339 339 338 338 338 338 337 337 337 337 337 337 337 338 338 337 338 337 337 337 337 337 337 337 337 337 336 336 336 337 337 337 337 336 336 335 334 333 333 333 333 333 333 333 332 331 329 328 326 325 324 323 322 321 321 321 321 322 323 322 322 321 320 319 318 317 316 315 313 311 310 307 305 306 304 301 300
336 343 343 343 344 342 341 340 339 339 338 338 338 337 337 337 337 337 337 337 337 337 337 337 337 337 337 337 337 337 337 337 337 337 337 337 337 337 337 337 337 336 336 335 334 333 332 332 333 333 332 332 330 328 326 326 325 324 322 321 320 320 319 319 319 320 321 322 322 321 320 318 315 314 313 312 311 312 311 308 308 307 305 302 301
331 342 344 344 344 342 340 340 340 339 338 338 337 337 337 337 337 337 337 337 337 337 337 337 337 337 337 337 337 337 337 336 336 337 337 337 337 337 337 337 337 336 336 335 334 333 333 332 332 331 331 329 328 327 325 325 324 323 321 319 319 318 317 317 316 317 318 319 319 318 316 315 313 311 310 309 309 310 310 309 308 308 306 304 303
325 339 344 344 344 342 340 340 340 339 338 338 337 337 337 336 337 337 337 337 337 337 337 337 337 337 336 336 337 337 336 337 336 336 336 337 336 336 336 336 336 336 336 335 334 333 333 333 332 331 329 329 328 326 324 323 322 322 320 319 318 318 316 314 313 313 313 313 312 312 311 310 309 309 308 307 307 308 308 308 308 308 306 306 305
320 334 343 344 344 343 341 340 340 340 339 338 338 338 337 337 337 336 337 337 337 337 337 337 337 336 336 336 336 337 336 336 337 336 336 336 336 336 336 336 335 335 335 334 333 333 332 332 331 330 330 329 327 324 322 322 321 320 319 318 318 317 315 313 312 311 310 310 309 309 309 308 308 307 307 306 306 306 307 307 307 307 306 305 304
318 330 341 344 344 343 341 340 340 340 339 338 338 338 337 337 337 337 337 337 337 337 337 337 337 336 336 336 336 336 336 336 336 336 336 336 336 335 335 335 335 334 334 334 333 332 331 330 330 329 329 327 324 322 320 319 317 317 317 317 316 315 314 313 311 310 310 310 309 309 308 307 307 306 305 304 303 304 305 306 306 306 306 305 303
319 328 338 343 344 343 341 341 340 340 339 339 338 338 337 337 337 337 337 337 337 337 337 337 337 336 336 336 336 335 336 336 336 336 336 336 336 335 335 334 334 333 333 333 332 331 330 330 329 329 327 324 322 320 319 318 315 314 314 315 315 314 313 312 311 310 310 309 309 308 307 306 305 304 303 302 301 302 303 304 305 305 305 305 303
321 328 337 341 343 343 341 341 341 340 340 339 338 338 337 337 337 337 337 337 337 337 337 337 336 336 336 335 335 335 335 336 335 335 336 336 335 335 335 334 333 332 332 332 330 330 330 329 329 327 325 323 320 318 318 317 315 313 313 313 313 313 312 312 311 310 309 309 308 307 306 305 304 302 301 300 300 300 301 302 303 304 304 303 303
325 328 335 340 342 343 341 341 341 340 339 339 338 338 337 337 337 337 337 337 337 337 337 337 336 336 336 335 335 335 335 335 335 335 335 335 335 334 334 334 332 332 332 331 330 330 329 328 327 326 324 321 319 317 317 316 313 312 312 312 312 312 311 311 310 309 309 308 307 306 305 304 303 302 301 300 300 300 299 299 300 301 302 303 303
327 329 334 339 341 341 341 340 340 340 339 339 338 338 338 337 337 337 337 337 337 337 337 337 337 336 336 335 335 335 335 335 335 335 335 334 334 334 334 334 333 332 331 330 330 329 328 327 326 324 323 320 318 316 315 313 311 311 311 311 311 311 310 310 309 308 308 307 306 305 304 303 302 301 301 301 301 300 300 299 298 298 300 300 302
329 331 334 339 341 341 342 341 341 340 339 339 338 338 338 338 337 337 337 337 337 338 338 337 337 336 336 335 335 334 334 334 334 334 334 334 333 333 333 333 332 331 331 330 329 328 327 326 324 323 321 319 317 315 313 311 310 310 310 310 310 309 309 309 308 307 306 305 305 304 303 302 301 301 301 301 301 300 300 300 299 299 299 299 300
330 334 336 338 341 342 342 342 341 340 339 339 338 339 338 338 337 337 337 337 337 338 338 337 337 336 336 335 335 334 334 334 333 333 333 333 333 333 332 332 331 331 330 329 327 326 326 325 324 323 321 318 316 314 312 310 310 309 309 309 309 309 308 308 307 306 305 304 304 303 302 302 301 301 301 301 301 300 300 300 300 300 299 299 300
330 333 336 338 340 342 342 342 341 339 339 339 338 339 339 338 338 338 337 337 338 338 338 337 337 336 336 335 334 334 334 334 333 333 333 333 332 332 331 331 331 330 330 328 327 326 325 325 324 322 320 318 316 314 312 310 309 309 309 309 308 308 308 307 306 305 304 303 302 302 302 301 301 301 301 301 301 301 301 300 300 300 300 299 299
330 331 334 337 340 341 342 342 341 339 340 340 339 339 339 338 338 338 338 338 338 338 338 337 337 337 336 335 335 334 334 334 333 333 333 332 332 332 331 331 330 330 329 328 326 326 326 325 324 322 320 318 315 314 312 310 309 309 309 308 308 307 307 307 306 304 303 302 301 301 301 301 301 301 301 301 301 301 300 300 300 300 300 299 299
331 331 332 336 339 341 341 342 341 339 339 340 339 340 339 339 339 338 338 338 338 338 337 337 337 337 336 335 335 334 334 334 333 333 333 333 332 332 331 330 330 329 329 329 327 326 325 324 322 321 319 317 315 314 312 310 309 309 308 308 307 307 306 306 305 304 303 302 300 300 301 302 302 301 301 301 301 301 300 300 300 299 300 299 299
333 332 332 335 339 340 341 341 341 340 339 339 340 340 340 340 339 339 338 338 338 338 337 337 337 336 336 335 334 334 334 334 333 333 332 332 332 331 330 330 330 330 329 329 328 327 325 324 321 319 318 317 315 314 312 310 309 308 308 307 306 306 306 305 304 304 303 302 302 302 302 302 302 302 301 301 301 301 301 300 299 298 298 298 298
334 334 333 335 339 340 340 341 341 340 340 340 340 340 340 340 339 339 339 338 338 338 337 337 337 336 336 335 334 335 334 333 333 332 332 331 330 329 329 330 330 330 329 328 327 326 325 324 322 319 318 316 315 314 312 311 309 309 308 307 306 306 305 305 304 303 303 303 303 303 302 302 302 302 302 301 300 299 299 300 299 297 296 296 297
334 336 335 336 339 340 340 341 341 340 340 340 340 340 340 340 340 339 339 339 338 338 337 337 337 337 336 335 335 335 334 333 333 332 331 330 329 329 329 330 331 330 329 328 327 326 325 323 322 320 318 317 315 314 312 311 309 309 308 306 306 305 305 305 304 304 304 304 304 304 303 303 302 302 302 301 299 298 299 300 299 297 295 295 296
335 338 338 338 339 340 340 340 340 340 340 340 340 340 340 340 340 339 339 339 338 338 338 337 337 336 336 335 335 334 333 333 332 331 330 329 329 329 329 329 330 329 328 327 326 326 324 323 321 320 318 317 315 314 313 311 309 309 308 307 306 305 305 305 305 304 304 304 304 303 303 303 302 302 302 300 298 298 300 300 298 295 295 295 295
334 338 340 339 339 339 340 340 339 339 339 340 340 340 340 340 340 340 339 338 338 338 337 337 337 336 335 335 334 334 333 332 332 331 329 328 328 328 328 328 329 328 327 326 325 325 324 322 321 320 318 317 316 315 313 311 309 308 308 307 306 306 305 305 304 304 304 304 303 303 303 303 302 302 302 300 298 299 300 299 295 294 294 295 295
334 339 341 340 339 339 339 338 339 339 340 340 340 340 340 340 340 340 339 338 338 337 337 337 336 336 335 335 334 333 332 332 332 331 329 328 328 328 328 328 328 327 325 324 324 323 323 323 322 320 318 317 316 315 313 311 309 308 308 307 306 306 305 305 304 304 304 304 304 303 303 303 302 303 302 300 299 300 299 297 295 295 296 298 299
335 338 341 340 339 340 339 338 338 339 339 339 339 339 340 339 339 339 339 338 338 337 337 337 336 336 335 335 334 333 332 331 331 330 329 328 327 327 327 327 327 326 324 324 324 323 323 323 322 320 318 318 317 315 313 310 309 308 308 307 306 306 305 305 304 304 304 304 304 303 303 303 302 302 301 299 299 299 298 296 296 298 299 300 301
334 336 339 340 338 337 338 337 338 338 339 339 339 339 339 338 339 339 338 338 338 338 337 336 336 336 335 334 334 333 332 331 330 329 328 326 327 327 326 325 325 324 323 323 323 322 322 323 322 320 319 318 317 315 312 310 309 308 308 307 306 306 305 305 305 304 304 304 304 304 303 303 303 301 300 300 298 297 296 296 298 300 300 301 301
330 331 333 335 336 335 336 337 337 338 338 338 338 338 338 338 338 338 338 338 337 337 337 336 336 336 335 335 334 333 332 331 329 328 327 326 326 326 324 324 324 321 320 321 321 320 322 324 322 320 320 319 317 314 312 310 309 308 308 307 306 306 306 305 305 305 305 304 304 303 303 304 302 301 301 300 297 295 295 297 299 300 300 301 301
328 330 330 331 334 336 336 337 337 337 337 338 337 338 338 337 338 338 338 338 337 337 337 336 336 335 335 334 333 333 332 330 329 327 326 326 326 325 325 325 323 322 321 321 321 320 321 323 323 322 321 319 317 314 312 311 309 308 308 307 307 306 305 305 305 305 305 304 304 304 304 303 302 301 301 300 296 294 295 297 299 300 300 300 300
324 327 330 332 334 335 336 336 336 336 337 337 337 337 337 337 337 337 337 337 337 337 337 336 336 335 334 334 333 333 332 330 328 327 326 326 326 325 325 324 323 324 324 321 320 320 321 322 323 322 321 320 317 314 313 311 309 308 308 307 307 306 306 305 305 305 304 304 304 304 304 303 302 302 302 300 295 293 294 297 298 299 300 299 299
322 324 329 332 333 334 334 334 335 336 336 337 337 336 336 336 336 337 337 337 337 337 337 336 336 335 334 333 332 332 331 330 328 327 327 327 326 325 324 321 321 323 322 320 320 320 322 323 323 321 320 319 317 315 313 312 310 309 308 308 307 307 306 305 305 305 304 304 304 304 303 303 303 302 302 302 297 293 293 295 296 297 297 297 298
323 325 329 332 333 334 334 334 335 336 336 336 337 336 335 336 336 336 337 337 337 337 337 336 335 334 333 333 333 332 331 330 329 329 328 327 325 324 323 321 321 320 319 319 319 319 321 323 322 320 319 318 316 315 314 312 310 309 308 308 308 307 307 306 305 305 305 304 304 304 304 303 303 302 302 302 299 295 293 294 294 296 298 299 300
323 326 329 332 333 334 334 335 335 335 336 336 336 335 335 335 335 336 337 337 337 337 336 335 334 334 333 332 333 332 331 330 329 329 328 325 323 323 321 320 321 320 318 317 317 317 318 319 318 317 316 315 315 314 313 312 311 309 308 308 308 307 307 306 305 305 305 304 304 305 304 304 303 303 302 302 301 298 297 298 299 299 301 302 301
325 328 330 331 332 333 333 334 335 335 336 336 335 335 335 334 335 336 336 335 336 336 336 335 333 333 332 332 332 332 331 329 328 328 326 324 322 321 320 319 319 318 316 315 315 317 316 314 313 313 312 313 314 313 313 312 311 310 309 308 308 308 307 307 306 305 305 305 305 305 305 304 304 303 302 302 302 301 301 302 302 302 303 303 301
324 327 329 330 331 332 332 334 335 335 335 336 335 335 334 333 334 334 333 333 335 335 334 333 332 332 332 332 332 331 330 328 327 326 325 323 321 320 319 318 318 317 317 316 316 316 314 312 311 311 311 312 312 312 312 313 312 310 309 308 308 308 307 307 306 306 306 305 305 305 305 305 304 304 303 303 303 302 302 302 303 304 304 303 302
323 324 327 330 331 331 331 333 334 335 335 336 335 334 332 331 333 333 332 332 333 333 332 331 331 331 331 331 331 330 329 327 326 326 324 321 320 319 318 317 317 318 318 316 314 314 313 312 311 311 310 311 311 311 312 312 311 310 309 308 308 308 307 307 306 306 306 305 305 305 305 305 304 304 303 303 304 304 303 302 303 304 304 303 302
323 323 324 327 330 331 331 332 333 334 335 335 335 333 331 330 332 332 331 332 333 332 331 330 330 330 331 331 329 327 326 325 326 326 324 322 321 320 318 317 318 318 317 315 313 312 312 311 310 310 310 310 309 310 311 311 310 309 308 308 308 307 307 306 306 305 305 305 305 305 305 305 305 304 304 304 305 305 304 303 303 304 304 304 303
323 322 322 325 329 331 332 330 331 333 334 334 334 333 330 330 331 331 331 331 331 331 330 329 329 330 330 329 326 324 324 324 324 324 322 321 320 320 318 317 317 316 314 314 313 312 311 310 310 309 309 309 309 310 311 311 310 308 307 307 307 307 306 305 305 305 305 305 306 306 306 306 305 304 305 305 305 305 305 304 304 304 304 304 303
322 322 323 325 327 330 331 329 329 332 333 333 333 332 330 330 331 331 331 330 330 329 329 328 328 329 328 327 326 324 323 323 322 322 321 319 319 319 318 318 318 317 316 315 314 313 313 313 312 310 309 309 309 310 311 312 310 309 308 308 307 306 306 305 305 305 306 306 306 306 305 305 305 305 305 305 305 305 305 304 305 305 304 304 303
322 323 324 325 325 327 328 328 329 331 332 332 332 331 330 331 331 331 330 329 329 329 328 328 328 327 325 325 324 324 323 321 320 320 320 319 319 319 320 320 320 320 321 321 319 317 317 316 313 312 311 310 309 311 313 313 311 310 309 309 308 307 307 306 306 306 306 305 305 304 304 305 305 304 304 304 304 304 304 304 304 304 304 304 303
322 323 324 324 324 326 326 327 328 329 330 330 330 330 330 330 331 330 330 329 328 328 328 328 327 325 323 323 322 322 322 321 320 319 318 317 317 318 319 319 318 318 320 322 321 321 320 318 315 314 313 313 314 315 315 313 311 311 310 310 310 309 308 307 306 306 305 304 304 303 303 303 303 303 303 302 302 302 302 303 303 303 303 303 303
321 322 323 323 323 324 325 326 327 328 328 329 329 329 329 330 330 330 330 329 328 327 326 325 325 324 322 321 321 321 320 319 319 318 317 316 315 315 316 316 316 316 317 318 318 319 319 318 316 314 313 313 314 315 315 313 312 311 310 310 309 308 307 307 306 305 304 303 303 302 302 302 302 302 302 302 302 302 302 302 302 302 302 302 302
Wind_Speed
17 22 23 22 22 23 24 26 29 30 30 32 33 35 37 37 36 36 35 35 34 33 33 33 32 31 30 30 30 28 27 26 25 26 25 23 21 20 20 19 18 17 17 16 15 14 14 14 15 17 17 16 17 16 15 15 14 16 17 20 21 22 23 22 23 24 22 16 12 11 10 10 9 9 8 7 6 6 6 7 7 8 7 7 7
14 16 16 19 21 23 25 27 30 32 33 36 37 36 35 35 35 35 35 35 36 36 36 35 34 33 30 30 31 30 29 28 27 27 25 23 22 21 21 20 19 18 17 16 15 15 15 16 17 19 19 17 16 16 16 16 16 18 19 21 21 22 24 25 25 22 16 15 14 10 7 7 9 9 9 8 8 8 7 7 6 6 6 5 5
12 11 12 19 23 25 26 27 31 34 34 35 35 34 33 34 34 34 35 36 36 37 37 35 34 32 29 29 31 29 28 29 28 26 23 22 21 22 22 21 20 18 16 16 16 16 16 17 18 20 20 18 17 17 18 18 18 19 20 21 21 22 23 26 26 18 13 17 15 7 3 3 4 6 9 9 9 9 9 8 7 7 6 5 6
13 11 12 16 21 23 25 27 30 31 31 33 34 35 36 36 36 36 36 36 37 37 36 35 33 30 28 28 29 28 26 27 26 24 23 22 21 23 23 22 20 18 16 16 17 16 16 17 19 21 21 19 17 18 20 19 19 20 21 22 22 23 23 26 25 16 14 16 9 3 2 2 1 5 9 9 8 9 10 10 8 8 6 5 6
14 13 13 14 17 22 27 29 31 32 33 36 38 39 39 38 37 36 36 36 36 36 35 33 31 29 27 26 26 25 24 25 25 23 23 23 24 25 24 22 20 18 16 17 17 17 17 18 20 21 21 19 17 17 19 19 19 20 20 22 22 22 23 27 25 17 16 16 9 4 3 1 2 5 7 7 8 8 9 11 10 9 7 6 6
14 15 15 15 16 21 27 30 31 31 35 39 41 41 39 37 36 36 37 37 37 36 35 33 32 32 31 28 27 25 24 26 27 26 25 25 25 25 23 22 20 18 17 17 17 18 18 18 20 21 20 18 16 15 17 18 19 19 20 21 21 22 22 25 27 20 17 18 13 7 5 3 3 7 5 2 6 7 7 10 11 11 9 7 6
12 14 15 16 17 18 22 27 30 32 37 40 39 38 38 36 36 37 37 37 38 36 35 34 34 34 34 32 30 28 25 26 28 28 27 26 25 24 23 22 20 19 18 18 18 18 19 20 20 20 19 17 15 15 16 17 18 18 19 20 20 22 23 25 28 24 19 19 16 11 8 4 5 9 6 3 3 5 7 10 11 12 11 9 8
12 12 14 16 17 18 22 28 33 36 37 37 36 38 40 39 38 38 37 37 37 36 35 36 36 35 34 32 29 29 28 26 27 27 27 26 25 23 23 22 20 19 18 18 19 18 19 21 22 21 19 17 16 15 16 16 17 18 18 20 20 22 23 24 27 27 23 21 19 14 9 6 7 10 9 7 4 2 5 7 11 13 11 10 8
14 14 14 15 16 21 27 31 35 37 36 36 38 40 40 39 37 37 37 37 36 36 36 37 36 35 34 31 29 28 28 27 27 26 26 26 25 24 23 22 21 20 19 19 19 19 20 21 22 22 20 18 17 16 16 16 17 17 18 19 20 22 23 24 25 27 26 23 20 17 11 8 9 9 10 9 4 3 3 4 9 12 10 10 8
14 15 15 15 19 26 31 32 35 36 36 38 39 38 37 36 36 38 38 37 36 36 37 37 36 35 35 33 30 28 27 27 27 26 26 26 25 24 23 22 21 21 20 20 21 21 21 20 21 22 20 19 18 17 17 16 15 16 17 18 20 21 23 24 25 24 25 24 21 20 15 12 10 7 9 10 5 3 3 4 10 12 9 7 7
12 14 14 15 20 27 29 30 33 34 34 35 35 34 35 36 37 38 37 36 36 37 37 37 36 36 36 34 32 31 29 29 28 27 27 26 26 25 24 22 22 22 22 22 22 21 22 22 22 21 20 19 18 17 16 15 14 15 16 18 20 21 22 24 24 22 21 22 22 21 19 16 13 10 12 14 10 5 3 5 10 12 8 6 6
12 13 13 14 16 19 20 22 25 26 27 30 32 33 35 35 36 36 36 36 37 37 38 37 37 36 36 35 34 33 32 32 31 29 28 27 27 26 24 23 23 23 23 23 22 22 23 23 23 21 20 19 18 17 16 15 14 15 16 17 19 21 22 23 24 23 21 21 21 21 19 18 17 15 14 15 15 12 8 6 9 10 6 5 9
11 12 13 13 14 14 15 17 20 21 25 28 32 34 34 35 36 37 37 37 37 37 38 38 38 37 37 36 35 34 34 34 33 31 30 29 28 28 27 26 25 25 25 24 23 23 23 23 22 21 20 19 18 17 16 16 15 15 16 18 19 19 21 21 23 23 21 21 20 20 19 18 17 16 15 15 16 15 10 7 8 8 6 9 12
10 12 13 13 14 14 15 18 21 23 27 30 32 33 33 34 36 37 37 37 37 37 38 38 38 38 37 36 35 35 35 35 34 32 31 30 30 30 29 29 28 27 26 25 25 24 24 22 21 20 19 19 17 16 15 15 15 15 16 18 17 18 18 18 20 21 21 20 19 19 19 18 17 16 16 15 15 15 13 12 11 6 7 11 9
10 11 13 15 16 16 16 20 23 25 29 31 32 33 33 34 37 38 37 38 38 38 38 39 38 37 37 37 36 37 36 35 34 33 32 31 31 31 30 30 29 28 27 26 25 25 23 22 21 20 19 18 17 16 15 15 15 15 17 17 16 16 16 16 18 18 19 19 18 18 18 17 16 16 16 14 14 16 16 17 16 9 5 5 4
10 12 13 15 16 16 17 22 25 27 30 31 32 34 34 35 37 39 39 39 39 38 39 39 38 36 36 37 37 37 36 35 34 33 32 32 31 30 30 30 29 28 27 27 26 25 23 22 21 19 18 17 16 16 15 15 15 14 15 16 15 15 15 15 16 17 17 16 16 17 16 15 15 14 14 13 13 15 16 17 21 18 10 3 1
11 12 14 15 16 16 18 23 26 28 30 31 33 36 38 38 39 39 38 37 38 40 40 38 37 36 36 36 37 37 36 35 35 33 32 31 30 30 30 29 29 28 28 28 27 26 24 23 21 19 18 17 16 16 16 15 15 14 15 16 15 14 14 14 15 15 14 14 14 14 13 13 13 12 13 13 13 14 15 16 21 24 19 9 3
12 14 15 16 17 16 18 24 29 32 33 34 37 39 40 40 40 39 39 39 41 40 38 37 37 36 35 36 37 37 36 35 35 34 32 31 30 30 30 29 29 29 28 28 28 26 25 23 21 20 18 18 18 18 17 16 16 16 16 16 15 14 14 13 14 13 13 13 13 13 12 12 12 11 12 12 12 13 13 15 19 23 22 16 10
11 13 14 16 17 16 17 22 29 32 34 36 38 38 38 37 38 39 39 39 38 36 35 35 36 36 36 36 37 36 35 35 34 33 33 32 31 30 30 29 29 29 29 29 28 27 26 24 22 20 19 19 19 19 18 16 15 16 16 16 16 15 14 14 14 14 14 13 13 13 12 11 11 11 10 10 10 11 11 13 17 19 19 18 16
10 11 12 15 16 17 20 24 28 32 34 35 35 35 35 36 37 37 36 35 35 35 36 36 36 36 35 36 37 36 35 35 34 34 33 33 32 31 30 29 30 30 30 29 29 28 26 25 22 21 20 20 20 20 17 14 14 15 15 16 16 15 15 15 15 14 14 13 13 13 12 11 11 10 10 9 9 8 9 11 13 15 15 15 16
9 11 12 14 15 16 21 27 29 31 33 34 34 34 35 35 36 37 36 36 36 36 36 36 36 36 35 36 37 36 35 35 34 34 34 32 32 31 30 30 30 30 30 30 29 28 26 24 22 21 21 21 21 20 17 14 15 16 15 16 16 16 16 16 15 15 14 13 13 13 12 12 11 11 10 9 9 8 8 9 9 10 12 12 14
7 11 12 13 15 15 19 24 27 27 29 30 31 32 32 33 34 36 37 37 37 37 37 36 36 36 36 36 36 35 35 35 34 34 33 33 32 31 30 30 30 31 31 30 29 27 25 24 22 21 21 21 21 19 16 16 18 17 17 17 17 17 17 17 16 16 15 14 14 13 13 13 12 11 11 10 9 8 7 8 8 8 10 12 13
7 10 11 12 14 15 17 21 24 25 27 28 30 31 32 33 34 35 36 37 38 38 37 35 35 35 35 35 34 34 34 34 34 34 34 33 32 32 31 31 31 31 31 30 29 27 25 24 22 22 21 21 21 19 16 17 18 17 17 17 17 17 17 16 16 16 16 15 15 14 14 14 13 12 12 11 9 8 7 6 7 7 8 9 10
5 7 10 11 13 14 15 17 19 22 25 27 29 30 32 33 34 35 37 37 37 36 35 35 35 35 34 34 34 34 34 34 34 34 34 33 32 32 31 31 31 31 31 30 28 27 25 24 23 22 22 21 21 19 17 17 17 16 16 16 16 16 16 15 15 16 16 16 16 16 16 16 15 14 14 13 10 8 7 6 6 6 6 7 9
5 5 9 12 13 14 14 14 15 19 23 26 28 30 31 33 34 36 37 36 35 34 34 35 35 34 34 34 34 34 35 35 34 34 34 33 33 32 31 31 31 32 32 30 29 27 26 24 23 23 22 21 20 19 18 17 17 16 15 15 15 15 15 15 15 16 16 17 16 17 17 17 17 16 15 14 12 10 8 6 6 6 6 7 9
5 5 8 11 13 13 14 13 14 19 23 25 28 29 31 32 35 36 36 36 36 35 35 35 35 34 34 34 34 35 35 35 34 33 33 33 33 32 31 31 32 32 32 31 29 28 26 24 23 23 22 21 20 19 18 18 18 17 16 15 15 15 15 15 16 16 16 16 16 17 18 19 18 18 17 15 13 11 9 8 7 6 6 7 8
5 4 7 10 12 13 14 14 14 19 24 27 29 30 31 32 33 34 34 35 35 35 35 35 35 34 34 34 35 35 36 35 34 33 33 33 33 32 31 31 32 32 32 31 29 28 25 24 23 23 22 20 19 18 18 18 18 18 17 17 16 16 16 17 17 17 16 16 16 17 18 18 17 17 16 15 13 11 9 8 7 7 8 8 9
4 4 8 12 13 13 15 15 15 19 23 26 28 30 32 33 34 34 34 34 35 35 35 35 34 34 34 34 35 35 35 35 33 33 33 33 32 32 31 31 31 31 31 30 29 26 25 24 23 23 21 20 19 19 20 20 19 19 18 17 17 17 18 18 17 17 16 16 17 17 17 17 15 14 14 13 12 11 11 11 10 10 11 12 13
8 6 8 12 13 14 15 15 16 18 21 24 25 28 30 30 31 32 33 34 35 35 36 35 35 35 34 34 34 34 34 34 33 33 33 33 32 32 32 31 31 30 29 28 26 25 24 24 24 23 21 20 20 20 20 20 20 19 19 18 18 18 18 19 18 18 17 17 17 17 17 16 14 14 13 13 12 13 13 13 13 14 15 15 15
11 9 8 11 13 14 15 16 16 17 20 23 24 26 28 28 29 31 32 33 34 34 34 34 35 35 34 34 33 33 33 33 33 33 32 32 32 32 32 31 30 29 28 27 25 24 25 25 25 24 22 21 21 21 20 20 20 19 19 19 19 19 19 19 19 20 20 19 18 17 17 16 15 15 15 15 16 15 15 15 14 15 16 16 16
10 10 9 10 12 13 14 15 16 17 21 24 25 27 29 29 30 32 33 34 34 34 33 34 34 34 34 34 33 33 34 34 34 33 32 32 32 32 32 31 30 29 28 27 25 25 25 26 25 24 23 22 22 21 20 20 19 19 19 19 19 20 20 20 20 21 21 20 19 18 18 17 18 18 18 18 18 16 15 14 14 14 16 16 16
9 9 8 10 12 13 14 15 15 17 22 25 25 26 27 28 30 32 34 35 34 34 34 33 33 33 33 34 34 33 34 34 34 32 32 32 32 32 32 31 30 29 28 27 26 26 26 26 25 24 23 22 22 21 20 19 19 19 19 19 20 20 21 21 21 21 21 21 20 19 19 20 20 19 19 19 17 14 14 14 13 13 14 14 14
8 7 8 9 10 12 13 13 14 18 24 28 28 28 28 30 33 34 34 34 34 34 33 32 32 32 34 35 34 34 34 35 34 33 32 32 32 32 32 31 30 29 29 29 27 26 26 26 26 24 23 22 21 20 20 19 20 20 19 19 20 21 21 21 21 22 21 21 21 21 21 22 20 19 20 19 16 13 13 13 13 13 13 13 13
7 6 7 8 8 9 11 15 18 22 25 28 29 30 30 31 32 33 33 33 33 33 32 32 32 33 34 35 34 34 34 34 35 34 32 32 33 33 32 31 30 29 29 30 28 26 26 27 25 24 23 22 21 20 19 20 20 20 20 20 20 21 21 21 21 22 22 22 22 22 23 22 21 21 21 18 15 14 15 14 15 15 14 13 12
7 6 5 7 8 8 9 13 19 23 23 24 26 26 26 27 27 28 30 32 32 32 32 32 32 33 34 35 35 35 34 33 34 34 34 34 34 33 32 31 31 31 31 31 30 28 28 27 25 24 23 22 20 19 19 20 20 20 20 20 21 21 21 21 22 22 22 23 23 22 23 22 21 21 20 17 15 16 16 17 17 16 14 13 11
8 6 5 7 9 10 11 14 18 22 22 23 25 25 24 25 27 28 29 29 30 29 29 31 32 32 34 35 35 35 34 33 34 34 34 34 34 33 32 32 31 31 31 31 30 29 29 28 26 25 24 22 21 20 20 20 21 21 21 21 21 21 22 22 23 23 23 24 23 22 23 23 20 18 18 17 17 17 18 19 17 15 14 13 12
9 7 7 9 12 15 17 19 20 21 23 24 25 26 25 25 26 27 27 27 27 27 28 30 32 33 35 36 36 35 34 34 34 34 33 34 34 33 32 32 31 30 30 30 30 29 29 29 27 26 24 23 22 21 21 21 21 22 22 22 22 23 22 23 24 24 24 25 23 22 23 23 19 17 16 17 18 18 20 20 18 15 15 15 14
10 7 6 8 13 17 20 22 22 22 23 25 25 26 25 24 24 26 27 26 26 26 28 30 32 34 35 35 36 36 35 34 34 34 33 33 33 33 33 33 33 31 31 31 31 30 30 29 27 25 24 23 23 22 21 21 22 22 23 23 24 23 23 23 24 24 25 25 24 23 25 23 18 16 15 16 17 19 20 20 18 16 15 15 15
11 10 7 9 14 19 21 23 22 22 24 27 27 27 25 22 23 25 25 25 26 28 31 32 33 34 35 35 35 36 36 35 34 33 34 34 34 34 34 34 34 34 34 33 31 30 31 29 27 25 24 24 23 22 22 22 23 23 23 24 25 24 23 24 24 24 25 26 25 25 26 23 18 15 15 15 16 19 21 20 18 17 16 17 16
10 11 10 12 14 16 16 17 20 23 27 29 29 27 25 23 23 24 23 25 28 31 32 33 32 33 34 34 35 36 36 36 34 33 34 35 35 34 34 34 33 33 33 32 31 31 31 30 28 26 25 26 25 23 23 23 24 24 25 26 26 25 24 25 25 25 26 27 27 27 26 23 18 17 17 16 15 18 20 20 19 19 18 17 14
10 12 12 14 16 17 17 19 23 25 27 29 28 25 23 23 23 22 23 28 30 29 29 30 31 33 34 35 36 37 36 35 34 35 35 34 34 35 35 34 33 32 31 31 31 31 31 29 28 27 27 27 26 24 23 23 24 25 26 28 28 26 25 25 26 27 27 27 28 27 27 23 20 19 19 16 15 16 18 19 20 19 17 15 13
8 13 13 13 14 17 18 20 23 27 28 30 28 24 22 22 21 23 27 29 28 27 28 30 32 34 34 35 36 36 35 35 35 37 36 34 33 33 32 33 34 33 30 28 28 28 28 27 27 28 28 28 26 24 23 23 24 25 27 28 29 27 25 25 27 28 28 27 27 26 25 23 21 20 19 17 16 16 17 18 18 17 15 15 15
4 8 14 14 11 12 15 18 23 27 29 29 28 24 22 21 21 24 26 24 23 26 30 31 33 34 34 35 36 36 35 35 35 36 36 34 33 31 30 30 30 28 25 25 26 27 26 25 25 26 26 26 26 25 23 22 23 25 28 29 29 27 26 26 27 28 27 27 26 24 24 23 21 20 18 17 18 18 18 17 16 15 15 15 16
8 6 10 13 9 8 13 16 21 26 28 29 29 23 17 17 19 21 22 22 23 27 30 31 32 33 34 35 36 36 35 35 36 36 34 32 31 30 30 29 28 27 26 27 29 29 27 25 24 24 24 25 25 25 24 22 23 25 28 29 30 29 27 26 27 27 26 26 23 21 21 21 22 21 17 16 17 20 20 19 17 15 15 16 17
9 9 7 7 9 11 14 15 20 26 27 28 29 24 18 18 22 22 24 27 27 27 29 31 32 33 35 35 34 34 35 35 37 37 34 31 31 30 30 30 30 30 30 28 28 28 27 26 24 24 24 25 25 24 23 23 24 25 27 29 29 30 29 28 27 26 26 25 22 19 19 20 21 21 18 14 15 18 20 21 19 17 17 17 17
9 9 8 5 8 12 13 13 17 24 26 24 25 27 25 23 22 22 25 30 32 31 30 31 33 34 35 34 31 31 33 35 37 37 35 35 35 34 32 32 32 31 29 25 24 24 24 23 22 22 23 23 23 22 22 23 24 26 27 29 30 30 30 28 27 25 24 23 21 19 19 20 21 21 19 16 15 16 18 21 21 20 20 19 18
8 11 10 5 7 9 9 10 13 19 22 21 23 27 28 26 25 25 26 29 32 32 28 28 30 32 32 32 31 30 31 33 35 35 34 34 36 36 34 32 31 28 23 20 19 19 19 18 18 19 20 22 21 21 22 23 25 27 27 28 30 31 30 28 26 25 24 22 20 19 19 19 19 20 19 18 16 16 17 19 20 20 21 20 19
8 11 10 4 6 7 8 9 11 16 19 20 22 26 27 29 31 33 33 31 31 30 28 28 30 31 31 32 33 32 32 32 32 33 33 33 34 34 33 32 32 29 27 25 25 25 24 24 24 23 21 20 20 22 24 25 26 27 27 28 29 30 31 30 28 27 24 21 19 18 18 17 18 19 19 18 18 18 19 19 19 20 21 21 21
7 9 8 5 4 5 7 8 11 17 20 20 23 26 28 31 33 34 36 36 33 32 30 29 30 30 30 32 34 34 33 32 30 30 31 31 32 34 34 33 32 31 30 30 30 30 30 29 28 26 25 23 22 24 25 24 23 25 26 27 28 29 31 31 30 28 25 21 19 17 17 17 18 18 18 18 18 19 19 19 19 19 20 21 21
9 8 5 4 5 5 7 8 13 18 20 21 23 26 30 33 33 33 36 37 36 33 30 27 27 27 28 30 32 31 31 31 31 31 28 25 24 26 28 29 28 28 28 27 27 28 29 28 27 26 26 23 20 18 18 18 20 22 24 24 25 27 29 30 30 28 24 21 18 17 17 17 18 19 19 19 18 18 18 18 18 18 19 20 20
9 7 4 2 3 4 6 8 12 17 20 23 24 26 30 34 35 36 38 39 38 34 29 27 28 28 29 30 29 27 28 29 30 31 29 26 21 18 18 20 22 24 24 24 24 24 24 24 24 24 22 20 17 14 12 12 15 19 21 21 23 25 26 29 29 27 23 20 19 18 18 19 19 19 20 19 19 18 18 17 17 17 18 18 19
Wind_Direction
216 215 209 201 197 193 190 187 185 186 189 189 190 191 192 193 194 196 198 198 195 194 195 197 197 197 197 198 201 204 205 207 207 208 210 213 217 222 223 221 223 226 228 229 225 219 214 211 206 198 198 197 196 196 192 187 186 185 179 174 171 163 157 159 162 159 147 135 136 146 156 165 169 167 165 164 162 159 161 159 150 140 129 120 110
217 211 197 188 189 188 185 183 182 185 188 191 192 192 193 195 196 196 197 198 197 196 195 197 197 197 195 196 199 201 202 205 206 208 212 216 219 222 221 220 223 227 228 226 221 216 212 208 203 198 196 195 194 192 190 186 185 187 180 170 169 168 163 162 164 161 148 142 142 135 137 161 172 176 178 180 184 183 179 175 166 156 145 133 114
216 201 186 184 185 184 181 181 184 187 189 191 192 192 193 196 198 198 198 198 199 199 197 198 199 199 198 197 200 201 202 205 208 211 213 217 219 218 218 219 223 227 225 222 217 213 210 207 201 197 195 194 191 187 187 188 185 187 187 178 170 166 165 167 170 170 161 150 141 132 138 150 173 194 194 195 198 196 193 187 178 167 153 136 125
210 198 190 187 183 181 181 182 185 186 187 190 193 193 195 198 199 199 200 200 201 201 199 199 198 199 199 200 203 204 203 205 209 213 215 217 216 214 216 219 223 226 223 219 215 210 208 206 200 196 195 195 192 188 188 190 189 188 189 187 179 169 167 172 178 184 178 163 142 103 130 135 229 216 198 199 202 200 200 196 186 178 166 147 137
204 196 193 190 185 184 185 184 184 185 187 191 194 195 197 200 199 199 200 201 202 202 200 198 197 195 195 195 198 201 201 203 205 207 210 212 211 212 214 218 221 224 222 217 212 208 208 206 200 195 193 195 195 194 193 193 193 193 192 193 190 184 179 180 185 192 192 189 180 138 129 160 247 186 175 196 206 203 203 200 197 192 182 170 158
206 198 193 191 192 190 188 186 184 186 190 193 196 196 197 199 199 199 200 201 203 203 200 198 196 193 190 187 187 188 190 196 201 202 203 204 206 210 213 215 218 219 219 217 210 207 207 204 200 196 193 193 195 197 199 197 196 197 199 199 201 202 196 188 191 196 197 200 201 191 187 210 186 156 148 192 204 207 208 202 203 200 198 197 188
214 208 198 192 193 191 190 189 187 190 194 195 195 195 196 197 199 199 200 201 202 202 200 198 196 195 193 191 189 188 188 195 202 204 204 204 205 209 211 211 213 214 215 217 214 208 206 203 199 197 194 194 195 200 203 203 202 202 206 208 209 210 206 199 198 198 197 203 208 207 199 205 180 166 166 165 174 213 216 203 202 202 206 209 208
209 212 207 198 194 193 193 191 191 195 196 192 191 192 195 197 198 198 199 201 202 201 200 199 198 196 195 194 193 193 194 197 200 203 205 205 206 208 209 208 210 211 212 216 217 212 208 204 199 198 197 197 200 205 207 207 206 206 209 214 216 216 216 214 208 202 200 204 207 207 209 212 196 190 192 176 140 176 209 209 207 206 211 215 223
204 205 206 203 199 197 196 194 195 197 194 190 191 193 195 195 195 196 198 200 201 200 200 200 200 198 196 195 194 195 198 199 199 201 203 205 206 205 206 207 207 208 210 213 216 215 212 206 201 199 198 201 205 208 210 210 209 211 213 218 220 220 222 223 218 211 209 209 207 207 209 200 195 204 202 185 145 144 186 216 205 205 215 220 225
206 205 204 203 204 202 198 196 197 197 194 192 192 192 192 192 192 194 197 199 199 200 200 200 200 199 197 196 195 194 195 197 197 198 201 203 203 202 204 205 205 205 206 209 213 213 211 206 203 201 201 207 210 211 213 212 217 223 226 229 227 223 222 223 223 222 219 218 216 211 203 191 188 194 198 194 174 145 167 198 196 197 202 203 209
208 205 205 203 207 208 202 198 198 196 193 191 189 190 190 190 191 193 196 197 198 199 200 199 199 199 199 198 196 193 192 192 192 194 197 199 199 200 202 204 204 204 204 206 208 207 205 204 203 203 206 212 214 217 219 219 230 236 233 234 232 225 222 222 223 225 225 224 223 220 215 211 208 207 208 204 196 175 160 178 189 190 187 179 181
209 203 203 201 204 208 207 204 200 193 190 187 186 188 189 190 191 192 194 196 197 199 199 199 199 200 200 199 198 195 194 193 193 193 194 196 197 199 201 202 201 201 202 202 201 200 200 200 200 201 208 216 218 219 221 225 235 241 236 234 234 228 222 221 222 225 228 227 226 226 227 229 227 228 229 222 217 210 189 164 168 170 166 146 142
212 203 198 197 199 201 201 200 194 187 187 187 186 187 188 190 190 191 194 195 196 198 199 199 200 200 200 200 198 197 197 197 196 195 195 196 199 200 201 201 200 199 200 200 199 200 200 200 200 202 209 219 223 222 224 228 233 236 233 230 232 230 224 223 226 229 231 231 231 230 230 233 234 235 237 235 228 216 194 160 157 162 148 139 141
215 209 199 195 198 199 195 191 187 184 187 188 187 187 187 188 190 192 194 194 195 197 198 199 201 201 201 200 199 198 199 199 198 198 199 199 201 204 206 206 204 203 202 201 200 201 201 203 205 207 212 220 225 226 227 231 234 232 228 225 227 230 230 229 230 231 232 232 233 233 233 234 235 233 233 235 230 219 201 171 151 136 137 144 147
213 210 204 198 196 197 194 188 186 186 187 187 188 187 186 188 190 191 193 193 195 197 198 199 200 201 201 201 200 200 201 200 200 202 203 203 205 208 209 209 208 207 206 204 203 202 201 204 207 211 216 221 225 227 226 227 231 231 228 225 225 228 231 233 233 233 233 232 232 233 234 235 234 231 231 236 235 228 219 193 168 144 124 146 156
210 206 205 203 200 198 192 187 186 187 187 188 188 187 187 189 191 192 193 193 194 196 198 199 200 200 200 200 200 201 201 200 200 202 204 207 210 211 210 210 211 210 207 206 206 204 205 207 209 213 218 223 228 231 230 227 231 236 233 230 227 228 231 233 233 233 232 232 233 232 231 229 227 228 228 232 234 228 228 217 193 173 159 154 177
212 203 199 200 202 202 194 187 186 186 187 188 188 188 189 190 191 192 192 192 194 197 198 199 198 199 200 200 200 201 201 200 200 201 203 207 211 212 211 210 211 210 207 206 206 206 209 211 214 216 221 228 234 236 231 226 232 239 237 236 236 232 230 228 229 229 226 225 225 222 221 218 217 222 226 228 230 225 223 224 211 195 181 167 150
221 206 196 195 200 203 196 189 188 188 188 188 190 191 192 192 191 189 189 191 194 197 197 197 198 198 199 200 201 202 201 200 201 201 203 205 207 209 209 209 209 208 207 207 206 206 209 212 216 220 225 232 236 234 226 223 230 233 232 237 239 234 228 222 220 220 217 214 211 208 208 211 215 219 224 227 226 225 222 217 212 206 196 187 173
226 210 198 196 197 199 196 192 191 191 190 190 191 191 191 192 191 190 191 192 193 194 195 197 198 199 199 200 201 202 201 201 201 201 202 204 206 207 207 207 208 207 206 207 206 207 208 211 216 221 227 231 231 228 225 226 228 226 226 231 232 228 223 216 212 210 210 208 205 204 205 207 213 215 219 223 219 218 219 213 210 208 207 207 192
224 211 203 197 198 198 196 194 192 191 191 191 190 189 189 190 190 190 191 190 191 193 194 196 198 199 199 200 201 201 201 201 201 201 201 203 206 207 207 208 208 206 205 206 206 206 208 211 216 221 224 227 226 225 228 231 228 224 225 227 225 220 215 212 209 205 204 207 206 206 206 205 209 209 205 203 203 202 203 204 209 211 213 219 206
221 209 204 197 198 198 196 196 195 192 192 191 188 187 188 188 188 188 188 188 191 193 194 196 197 198 199 200 200 200 200 200 200 200 201 202 205 206 208 210 207 204 204 205 205 206 209 212 216 220 222 224 225 224 227 229 226 224 222 222 220 214 210 210 208 204 202 205 209 207 204 203 203 201 194 188 186 183 187 189 192 201 202 202 201
222 208 205 196 196 196 195 196 195 193 192 188 185 185 185 186 187 187 187 189 190 191 193 195 195 197 199 199 199 198 197 199 198 198 199 200 202 204 207 209 206 204 205 206 206 207 210 213 216 219 220 224 226 226 225 221 219 219 217 215 215 211 209 207 204 204 203 204 208 206 201 198 196 195 190 185 181 175 176 178 174 182 185 181 188
231 207 205 198 195 194 192 193 194 193 190 185 183 184 184 186 186 187 188 190 191 191 192 193 193 196 198 198 197 196 196 197 196 196 197 199 201 202 206 209 207 206 207 207 209 210 210 212 215 218 220 223 226 226 224 216 212 213 212 211 211 209 208 206 204 205 205 204 204 201 198 195 190 190 186 181 180 177 175 173 161 161 170 169 179
255 208 205 201 197 194 191 192 192 191 187 184 184 184 184 186 186 187 190 191 190 189 189 190 192 195 196 196 195 194 194 195 195 195 196 198 200 201 204 207 207 207 206 206 208 210 210 212 214 217 219 220 223 223 222 217 213 215 215 212 210 209 209 212 211 209 207 205 203 199 196 193 189 188 185 180 178 176 173 170 153 142 149 152 159
281 218 207 202 198 196 194 192 188 186 185 184 184 184 184 185 186 188 191 189 188 188 187 189 190 192 194 194 194 192 193 194 194 194 195 197 198 199 201 203 204 205 205 205 206 207 210 213 216 219 219 218 220 221 220 218 216 218 219 219 216 213 213 214 214 213 211 208 205 201 196 193 190 189 185 181 179 175 172 170 156 141 141 146 152
283 231 214 207 201 198 193 190 186 184 183 183 184 186 186 186 187 190 189 186 185 187 187 187 188 190 192 193 192 191 193 194 193 192 194 196 197 198 199 200 202 203 203 204 205 207 210 214 218 219 220 219 220 219 219 219 219 219 220 220 218 216 216 214 213 213 212 209 206 202 198 194 194 194 190 184 182 179 176 174 168 158 152 150 153
271 229 217 211 205 199 190 186 185 185 185 184 185 186 186 186 188 190 187 185 184 185 185 185 187 188 190 191 191 191 192 193 192 192 193 195 197 199 199 200 202 202 202 203 205 208 211 215 218 219 219 221 220 219 219 220 220 219 219 218 216 215 214 212 211 210 209 208 203 200 198 196 196 199 195 187 182 181 181 184 186 184 180 173 168
311 251 218 206 201 196 188 185 184 184 186 187 187 187 187 187 188 187 185 184 184 183 183 184 186 187 190 191 190 190 190 191 191 191 193 196 198 199 199 200 201 201 203 206 207 209 212 214 217 218 219 220 219 219 219 218 218 218 218 218 216 214 211 209 207 206 205 204 200 198 199 197 196 197 196 192 191 195 197 197 202 207 203 193 182
331 283 225 205 198 192 187 186 184 182 184 186 188 188 188 189 187 184 184 184 184 183 182 183 185 187 189 189 187 187 188 189 189 190 193 196 198 198 197 199 201 202 205 207 209 211 213 213 214 216 218 219 219 221 221 219 218 215 216 218 216 214 212 207 203 202 202 200 197 197 198 197 196 196 199 202 209 216 216 212 211 212 208 200 191
323 288 235 204 196 191 188 187 184 182 182 184 186 187 187 187 184 182 183 184 184 183 182 183 185 187 188 186 184 184 185 186 188 191 193 194 195 195 195 197 200 203 205 207 209 212 213 214 214 214 216 218 220 222 223 222 221 218 218 217 214 213 211 208 204 200 197 196 196 197 197 197 199 200 204 209 214 219 221 223 225 219 210 203 195
312 281 234 200 193 192 190 188 186 184 182 183 186 186 185 185 183 181 183 183 183 183 183 184 186 186 184 183 182 183 184 185 187 190 191 191 191 192 193 196 199 202 205 207 209 211 212 214 215 216 217 218 220 222 224 223 222 222 221 217 214 213 210 209 207 201 197 196 197 198 198 198 201 203 207 213 218 220 220 224 232 228 218 211 199
300 273 227 195 188 188 188 190 188 183 182 183 185 185 185 184 182 182 183 182 183 183 183 184 185 184 181 181 182 182 182 182 185 187 188 188 188 190 192 194 196 200 203 204 207 209 211 213 215 217 218 220 221 223 224 223 222 222 222 220 217 214 210 209 207 204 200 197 196 197 197 200 203 206 211 217 221 223 221 223 226 220 215 211 203
279 254 215 194 189 186 184 185 185 184 185 184 183 184 186 185 184 183 182 181 182 183 183 183 183 181 179 179 180 180 180 180 182 185 186 185 186 189 191 192 195 198 201 202 204 207 210 212 213 216 218 220 222 224 224 223 222 221 220 220 218 216 213 209 207 204 201 198 197 197 198 202 205 209 217 224 226 221 219 220 213 199 192 194 196
270 244 206 189 185 182 180 181 184 187 189 187 184 186 188 187 185 183 181 181 182 182 182 181 180 179 178 178 179 179 179 179 180 183 184 184 186 189 191 193 195 196 198 199 200 204 209 211 214 217 218 220 223 225 224 222 222 221 219 219 219 217 214 211 208 206 204 203 203 202 204 207 208 212 220 228 230 223 216 210 199 186 183 188 193
278 259 213 184 176 175 177 180 183 184 184 184 186 187 187 185 185 183 182 183 183 181 180 180 179 178 178 178 178 178 178 177 178 181 183 184 186 188 189 192 195 196 198 199 200 203 206 208 213 216 218 220 223 224 223 222 221 219 218 218 218 216 214 212 210 209 209 210 210 210 213 214 215 220 228 233 233 225 215 205 196 190 192 198 203
268 256 226 193 173 170 173 175 177 177 177 181 185 185 183 183 185 186 186 185 182 180 179 179 178 177 177 178 178 177 175 175 177 179 181 182 184 187 189 191 193 196 197 198 199 202 204 206 211 214 216 220 222 221 221 221 220 218 216 216 216 214 213 213 210 211 214 215 216 218 218 217 222 232 238 238 234 224 213 207 201 199 205 211 217
271 255 236 210 181 170 169 169 169 172 175 179 182 181 181 183 185 186 185 183 181 180 179 178 178 178 178 178 177 175 174 175 177 179 180 181 184 187 188 190 190 190 192 195 199 202 204 207 210 212 215 219 219 218 218 218 217 216 214 214 215 214 213 213 212 214 216 218 221 223 218 218 230 242 243 241 234 222 213 211 208 210 217 223 226
275 261 244 214 183 169 167 167 167 171 175 175 176 178 179 181 185 186 184 182 180 180 179 179 179 179 179 178 177 175 175 176 178 178 178 180 183 187 190 192 192 190 192 197 200 202 204 207 211 214 217 219 219 216 215 216 216 216 214 214 214 212 211 212 214 216 219 221 223 221 219 224 238 245 243 240 232 220 213 213 216 220 226 232 234
262 249 226 202 182 169 168 170 168 169 172 172 172 175 177 181 185 186 185 182 181 182 182 182 181 180 178 176 175 176 176 178 178 178 178 181 185 188 191 193 193 193 195 198 200 200 202 206 212 216 217 219 219 216 213 215 215 214 213 214 214 212 212 214 217 218 219 220 222 220 221 229 240 242 240 239 232 220 214 216 221 229 238 245 246
259 241 210 187 174 164 163 168 170 171 171 170 172 175 177 182 186 186 186 186 187 187 185 182 179 176 175 173 174 176 178 179 178 178 181 185 187 189 191 191 190 191 194 195 197 199 202 206 212 215 216 218 219 216 213 214 215 214 213 214 213 214 215 217 218 218 218 219 221 222 224 230 236 236 238 241 235 224 220 224 230 236 245 253 255
245 225 198 172 166 166 170 173 174 172 170 170 173 176 180 184 185 185 188 191 191 188 182 177 175 173 172 173 175 178 180 180 180 181 185 188 188 190 190 188 187 189 192 193 194 197 200 207 212 213 214 218 219 218 215 214 215 215 214 213 215 218 221 221 219 218 220 221 223 226 228 230 232 233 237 240 234 226 226 232 237 240 247 254 258
232 205 193 177 170 171 174 175 172 170 171 172 173 176 182 184 184 191 195 191 186 181 177 173 172 172 172 172 175 180 182 182 182 185 186 186 187 188 187 186 188 190 191 189 189 192 198 205 209 210 212 215 217 219 218 216 217 218 216 215 218 222 224 223 220 218 220 223 227 231 233 233 233 234 238 239 232 226 227 234 240 243 247 252 257
285 202 189 182 176 171 169 171 172 171 173 174 174 178 183 183 189 198 192 178 171 173 173 172 169 169 170 172 176 180 182 181 183 186 185 183 182 183 182 185 187 185 181 181 186 191 197 201 203 206 209 213 216 218 217 217 219 221 219 218 221 224 225 225 223 223 224 226 229 234 237 237 235 234 238 239 232 227 229 235 241 245 249 255 257
325 284 209 182 166 155 159 165 171 173 175 177 178 178 175 179 191 189 170 162 171 175 171 168 167 166 168 173 177 180 181 182 184 186 183 177 175 176 178 182 185 183 181 185 187 190 194 197 198 200 204 209 214 216 216 218 221 223 222 221 222 223 225 226 227 229 232 231 232 238 243 243 238 235 240 245 239 233 234 237 242 249 254 257 256
328 314 264 200 165 153 157 165 172 176 180 181 178 172 166 178 191 184 169 172 182 179 169 165 164 164 168 174 177 179 181 182 184 184 179 171 170 172 174 178 184 187 188 188 186 188 192 194 196 197 200 205 211 213 214 218 221 223 223 222 222 223 226 228 229 232 235 235 237 244 249 248 242 238 242 250 247 240 239 239 242 250 256 257 256
329 333 322 263 188 167 164 168 174 179 182 181 178 174 173 177 183 181 177 178 178 176 171 165 162 166 172 175 175 175 176 178 180 182 179 175 174 176 176 178 184 189 190 187 185 186 189 192 195 197 198 202 207 209 212 217 219 220 220 221 221 221 223 226 229 232 234 235 239 245 248 248 244 239 241 251 253 246 241 240 243 250 254 255 254
319 327 331 289 205 184 174 170 175 181 181 178 179 181 178 175 175 176 174 172 171 170 169 165 165 170 174 174 172 169 169 172 176 179 178 175 176 178 177 178 182 182 179 180 184 185 186 191 197 198 199 202 206 208 211 216 218 218 218 218 218 219 219 221 225 229 232 234 237 240 241 245 245 241 241 247 249 243 240 241 245 249 251 251 252
318 326 331 291 210 195 184 176 171 174 175 176 179 180 175 172 175 176 171 166 165 165 164 166 170 173 174 174 173 170 168 171 175 176 174 174 176 178 178 182 186 184 181 184 189 192 195 200 200 198 197 198 203 211 216 217 217 217 217 216 217 218 219 220 222 226 229 230 233 234 234 237 241 240 239 240 239 239 240 244 248 248 247 249 251
323 330 326 292 237 199 179 167 163 167 170 171 175 177 173 169 171 172 168 163 163 167 171 172 173 173 172 173 172 172 171 170 169 171 173 175 179 182 184 188 192 194 195 196 197 199 203 205 202 200 198 195 201 215 224 223 219 218 219 219 220 220 221 222 224 226 227 226 226 227 229 231 234 235 234 233 234 236 240 244 248 248 247 247 247
327 332 320 281 255 212 174 156 158 164 165 164 168 174 176 175 174 172 167 162 164 169 172 173 172 172 172 171 170 171 170 166 165 167 168 168 175 183 187 189 190 194 199 203 205 207 210 209 207 207 208 208 214 228 233 228 222 221 223 225 227 227 226 225 225 224 225 225 223 223 224 226 227 229 230 231 233 235 238 242 246 247 248 248 248
325 330 330 295 243 209 174 155 159 163 163 164 166 169 172 176 177 176 172 167 165 165 167 170 173 173 172 170 167 166 165 163 163 164 162 158 158 165 177 187 189 191 196 202 206 210 213 213 212 211 211 214 224 233 234 228 224 223 223 226 228 229 228 227 226 224 223 223 222 221 221 223 224 227 229 232 235 237 239 242 245 249 252 253 253